Location: G�migny
(47.9646°N, 1.6950°E)
Time: 21:27:08
(UTC+00:00)

Abrixas rocket - Pass Details

Date: 23 October 2019
Orbit: 359 x 367 km, 48.4° (Epoch: 22 November)

Event Time Altitude Azimuth Distance (km) Brightness Sun altitude
Rises 17:12:29 0° 249° (WSW) 2,222 8.3 -4.4°
Reaches altitude 10° 17:14:32 10° 247° (WSW) 1,374 6.6 -4.7°
Maximum altitude 17:17:35 67° 163° (SSE) 407 2.2 -5.2°
Drops below altitude 10° 17:20:39 10° 81° (E) 1,376 4.2 -5.7°
Enters shadow 17:21:05 - 80° (E) 1,552 4.4 -5.8°
